Regional Weather Roundup
Issued by NWS Little Rock, AR

Home | Current Version | Previous Version | Text Only | Print | Product List | Glossary On
Versions: 1 2 3 4 5 6 7 8 9 10 11 12 13 14 15 16 17 18 19 20 21 22 23 24 25 26 27
000
ASUS44 KLZK 250405
RWRLZK

WEATHER ROUNDUP FOR ARKANSAS
NATIONAL WEATHER SERVICE LITTLE ROCK AR
1100 PM CDT TUE MAY 24 2016

NOTE: "FAIR" INDICATES FEW OR NO CLOUDS BELOW 12,000 FEET WITH NO
SIGNIFICANT WEATHER AND/OR OBSTRUCTIONS TO VISIBILITY.

ARZ001-003-010-029-250500-
NORTHWEST ARKANSAS

CITY           SKY/WX    TMP DP  RH WIND       PRES   REMARKS
FAYETTEVILLE   CLOUDY    66  60  81 S15G26    29.95F
FORT SMITH     PTCLDY    72  68  87 NE12      29.99F
HARRISON       CLOUDY    63  62  97 SE12      30.06F FOG
BENTONVILLE    CLOUDY    73  59  60 CALM      29.88F
ROGERS           N/A     73  63  70 SE13G23   29.88F
SILOAM SPGS    CLOUDY    70  54  56 S17       29.93R
HIGHFILL       CLOUDY    78  54  43 S16G23    29.88F
$$

ARZ004-005-016-250500-
NORTH CENTRAL ARKANSAS

CITY           SKY/WX    TMP DP  RH WIND       PRES   REMARKS
BATESVILLE     CLOUDY    64  61  88 S10       30.07F
FLIPPIN        CLOUDY   N/A N/A N/A CALM      30.02S
MTN HOME       CLOUDY    62  61  96 S5        30.05S
$$

ARZ040-041-250500-
WEST CENTRAL ARKANSAS

CITY           SKY/WX    TMP DP  RH WIND       PRES   REMARKS
MENA           PTCLDY    73  72  94 CALM      30.03F
MOUNT IDA      MOCLDY    75  69  81 SE5       30.03F
$$

ARZ009-017-025-026-028-250500-
NORTHEAST ARKANSAS

CITY           SKY/WX    TMP DP  RH WIND       PRES   REMARKS
CORNING          N/A     66  66 100 W15       30.06R
JONESBORO      LGT RAIN  67  64  90 VRB3      30.04F
NEWPORT        CLOUDY    67  67 100 S17       30.04F
WALNUT RIDGE   CLOUDY    66  61  82 E9        30.03F
BLYTHEVILLE    CLOUDY    68  66  93 S10       30.04F
$$

ARZ022-023-033-042-044-250500-
CENTRAL ARKANSAS

CITY           SKY/WX    TMP DP  RH WIND       PRES   REMARKS
LITTLE ROCK    CLOUDY    69  64  84 E9        30.10S
N LITTLE ROCK    N/A     65  63  93 E9        30.07S
JACKSONVILLE   CLOUDY    67  65  96 E2        30.09S
SEARCY         CLOUDY    66  64  93 CALM      30.10F
HOT SPRINGS    CLOUDY    77  68  73 E16       30.07R
RUSSELLVILLE   CLOUDY    66  64  93 E7        30.07F
CLINTON        MOCLDY    66  64  94 CALM      30.10S
$$

ARZ036-250500-
EAST ARKANSAS

CITY           SKY/WX    TMP DP  RH WIND       PRES   REMARKS
WEST MEMPHIS   LGT RAIN  66  65  96 S13       30.05F
$$

ARZ050-053-066-070-073-250500-
SOUTHWEST ARKANSAS

CITY           SKY/WX    TMP DP  RH WIND       PRES   REMARKS
ARKADELPHIA    FAIR      76  76 100 CALM      30.06R
CAMDEN         PTCLDY    75  68  78 CALM      30.05F
TEXARKANA      CLEAR     77  70  79 SE7       30.02S
EL DORADO      MOCLDY    74  71  91 CALM      30.06R
DE QUEEN       CLOUDY    76  72  87 E6        29.98F
$$

ARZ056-057-069-250500-
SOUTHEAST ARKANSAS

CITY           SKY/WX    TMP DP  RH WIND       PRES   REMARKS
PINE BLUFF     CLOUDY    70  63  78 E9        30.11R
STUTTGART      CLOUDY    68  61  77 E13       30.09F
MONTICELLO     CLOUDY    73  64  73 N9        30.12R

$$






USA.gov is the U.S. government's official web portal to all federal, state and local government web resources and services.